Regional Weather Roundup
Issued by NWS

Home | Current Version | Previous Version | Text Only | Print | Product List | Glossary Off
Versions: 1 2 3 4 5 6 7 8 9 10 11 12 13 14 15 16 17 18 19 20 21 22 23 24 25 26 27 28 29 30 31 32 33 34 35 36 37 38 39 40 41 42 43 44 45 46 47 48 49 50

000
ASUS43 KMKX 282321
RWRWI

WISCONSIN REGIONAL WEATHER ROUNDUP
NATIONAL WEATHER SERVICE MILWAUKEE/SULLIVAN WI
600 PM CDT TUE JUL 28 2015

NOTE: "FAIR" INDICATES FEW OR NO CLOUDS BELOW 12,000 FEET WITH NO
SIGNIFICANT WEATHER AND/OR OBSTRUCTIONS TO VISIBILITY.

WIZ001-002-006>008-014>016-023>028-290000-
NORTHWEST WISCONSIN

CITY           SKY/WX    TMP DP  RH WIND       PRES   REMARKS
SUPERIOR ARPT  PTSUNNY   82  69  64 SW9       29.75S HX  86
ASHLAND        MOSUNNY   84  71  65 SW7       29.79S HX  89
HAYWARD        MOSUNNY   82  68  62 SW9G16    29.83S HX  85
SIREN          CLOUDY    81  69  67 SW7       29.83R HX  84
CUMBERLAND     CLOUDY    77  70  78 SW7       29.84S
RICE LAKE      CLOUDY    80  71  74 S5        29.86R HX  83
CHETEK         CLOUDY    81  73  77 MISG      29.84S HX  85
LADYSMITH      MOSUNNY   83  70  64 S10       29.87S HX  88
EAU CLAIRE     MOSUNNY   86  71  60 S12       29.83S HX  91
MENOMONIE      PTSUNNY   83  73  70 S6        29.83F HX  89
NEW RICHMOND   CLOUDY    80  71  74 SW5       29.84R HX  84
OSCEOLA        CLOUDY    81  71  71 S3        29.84S HX  85
$$

WIZ003>005-009-010-017-018-290000-
NORTH CENTRAL WISCONSIN

CITY           SKY/WX    TMP DP  RH WIND       PRES   REMARKS
MANITOWISH WTR MOSUNNY   79  68  68 S13G21    29.88S HX  82
ARBOR VITAE    MOSUNNY   82  69  64 S15       29.88F HX  86
WOODRUFF       MOSUNNY   82  69  64 S15       29.88F HX  86
RHINELANDER    MOSUNNY   80  66  62 S10       29.91F HX  82
EAGLE RIVER    PTSUNNY   80  62  54 S12G20    29.90S HX  81
LAND O LAKES   MOSUNNY   80  65  58 S9G17     29.90F HX  82
PHILLIPS       PTSUNNY   80  70  70 S10       29.86F HX  83
TOMAHAWK       MOSUNNY   82  68  63 S5        29.90F HX  85
MEDFORD        SUNNY     79  70  74 S10       29.89S HX  82
MERRILL        NOT AVBL
$$

WIZ029-030-035-036-043>047-290000-
CENTRAL WISCONSIN

CITY           SKY/WX    TMP DP  RH WIND       PRES   REMARKS
WAUSAU         CLOUDY    84  68  58 S12       29.88S HX  87
MOSINEE        SUNNY     81  70  69 S10       29.91S HX  84
MARSHFIELD     PTSUNNY   80  69  69 S10       29.90S HX  83
STEVENS POINT  PTSUNNY   82  68  62 S9G16     29.90S HX  85
WAUPACA        PTSUNNY   85  69  57 S7        29.90S HX  89
WAUTOMA        MOSUNNY   86  72  62 S9        29.89F HX  92
WISC RAPIDS    PTSUNNY   84  69  60 S8        29.90F HX  88
CAMP DOUGLAS   PTSUNNY   82  75  78 S9        29.90R HX  89
$$

WIZ011>013-019>022-031-037>040-048>050-290000-
NORTHEAST WISCONSIN

CITY           SKY/WX    TMP DP  RH WIND       PRES   REMARKS
ANTIGO         PTSUNNY   80  67  64 S15       29.93R HX  83
SHAWANO        PTSUNNY   87  66  49 S6        29.89F HX  88
OCONTO         PTSUNNY   81  65  59 S8        29.90S HX  82
STURGEON BAY   PTSUNNY   79  63  57 S12       29.94F HX  80
GREEN BAY      CLOUDY    83  66  56 S10       29.91S HX  85
MANITOWOC      PTSUNNY   78  66  66 MISG      29.93R HX  80
APPLETON       PTSUNNY   82  64  54 S12       29.92R HX  84
CLINTONVILLE   PTSUNNY   86  64  48 S9        29.89S HX  87
OSHKOSH        CLOUDY    83  67  58 SE9       29.90R HX  85
$$

WIZ032>034-041-042-053>061-290000-
SOUTHWEST WISCONSIN

CITY           SKY/WX    TMP DP  RH WIND       PRES   REMARKS
LA CROSSE      MOSUNNY   85  73  67 S8        29.86S HX  91
SPARTA         MOSUNNY   82  70  65 S7        29.90S HX  86
VIROQUA        MOSUNNY   79  71  76 S8        29.92S HX  82
BOSCOBEL       MOSUNNY   82  71  69 SW7       29.90S HX  86
PRAIRIE DU CHI CLOUDY    80  68  67 CALM      29.89S HX  82
PLATTEVILLE    PTSUNNY   81  74  80 SW5       29.92F HX  86
$$

WIZ056-057-062-063-064-067-068-290000-
SOUTH CENTRAL WISCONSIN

CITY           SKY/WX    TMP DP  RH WIND       PRES   REMARKS
REEDSBURG      MOSUNNY   82  72  72 S7        29.90F HX  86
BARABOO/DELLS  MOSUNNY   82  69  64 SW10      29.92R HX  85
LONE ROCK      MOSUNNY   83  72  69 SW3       29.91S HX  88
MINERAL POINT  SUNNY     82  73  74 SW5       29.93S HX  88
MADISON        PTSUNNY   85  71  63 SW8       29.91R HX  90
MIDDLETON      PTSUNNY   86  70  57 S9        29.92S HX  91
WATERTOWN      PTSUNNY   84  74  72 S10       29.91R HX  91
MONROE         MOSUNNY   82  72  69 S9        29.93S HX  87
JANESVILLE     PTSUNNY   86  72  62 SW9       29.91R HX  92
$$

WIZ051-052-058>065-066-070>072-290000-
SOUTHEAST WISCONSIN

CITY           SKY/WX    TMP DP  RH WIND       PRES   REMARKS
MILWAUKEE      CLOUDY    82  67  60 S13       29.91F HX  84
WAUKESHA       PTSUNNY   81  66  61 SE7       29.94R HX  83
MILWAUKEE/TIMM SUNNY     82  64  54 S12       29.92S HX  84
RACINE         CLOUDY    83  66  56 S12       29.93S HX  85
BURLINGTON     CLOUDY    81  68  66 S3        29.92S HX  83
KENOSHA        CLOUDY    83  69  62 S9        29.92S HX  86
FOND DU LAC    CLOUDY    83  68  60 SE10      29.91S HX  86
SHEBOYGAN      CLOUDY    78  66  66 S8        29.93R HX  80
WEST BEND      CLOUDY    79  64  61 CALM      29.92S HX  81
JUNEAU         PTSUNNY   83  73  70 SW10      29.93R HX  89
$$

LSZ147-162-290000-
LAKE SUPERIOR

STATION/POSITION TIME  TEMP    WIND        PRES    WAVE
                       AIR SEA DIR/SP/G            HT/PER
                 (UTC) (F)     (DEG/KT/KT) (MB)    (FT/S)
W MID LAKE BUOY  2250   68 62  130/ 10/ 12 1008.1F   1/ 3
DEVILS ISLAND    2300   79      50/  2/  2 1007.7F
SAXON HARBOR     2240   86                 1008.5F
$$

LMZ867-665-643>646-290000-
LAKE MICHIGAN

STATION/POSITION TIME  TEMP    WIND        PRES    WAVE
                       AIR SEA DIR/SP/G            HT/PER
                 (UTC) (F)     (DEG/KT/KT) (MB)    (FT/S)
CHAMBERS ISLAND  2200   80     130/  4/ 10 1012.5F
S GREEN BAY BUOY 2300   79 76  160/ 10/ 14 1014.1R
N MID LAKE BUOY  2250   72 72  160/  4/  4 1012.7F   0
NORTHPORT PIER   2200   76     150/  6/ 10 1012.9F
SISTER BAY       2229   79     170/  9/ 13   N/A
ALGOMA LAKESHORE 2212          220/  9/ 10   N/A
KEWAUNEE LAKESHO 2200   70     180/  5/  7 1012.9R
SHEBOYGAN LAKESH 2300   75     190/ 11/ 12 1013.8R
PORT WASHINGTON  2200   76     160/  4/  6 1013.2R
ATWATER BUOY     2300   73     140/  4/  6 1014.6R
MILWAUKEE LAKESH 2300   74     140/  9/ 10   N/A
KENOSHA   LAKESH 2300   80     180/  8/ 10 1012.5S
$$

TC  - TEMPERATURE IN CELSIUS
VSB - VISIBILITY IN STATUTE MILES
WCI - WIND CHILL INDEX
HX  - HEAT INDEX




USA.gov is the U.S. government's official web portal to all federal, state and local government web resources and services.